TimePST,TemperatureF,Dew PointF,Humidity,Sea Level PressureIn,VisibilityMPH,Wind Direction,Wind SpeedMPH,Gust SpeedMPH,PrecipitationIn,Events,Conditions,WindDirDegrees,DateUTC
12:53 AM,42.1,28.9,60,30.30,10.0,SE,8.1,-,N/A,,Mostly Cloudy,140,2012-01-01 08:53:00
1:53 AM,43.0,28.9,58,30.29,10.0,ESE,4.6,-,N/A,,Overcast,120,2012-01-01 09:53:00
2:53 AM,43.0,30.0,60,30.29,10.0,Calm,Calm,-,N/A,,Overcast,0,2012-01-01 10:53:00
3:53 AM,42.8,30.2,61,30.29,10.0,Calm,Calm,-,N/A,,Overcast,0,2012-01-01 11:53:00
4:53 AM,42.1,30.9,65,30.27,10.0,Calm,Calm,-,N/A,,Overcast,0,2012-01-01 12:53:00
5:53 AM,41.0,32.0,70,30.25,10.0,Calm,Calm,-,N/A,,Overcast,0,2012-01-01 13:53:00
6:53 AM,42.8,35.6,76,30.26,10.0,NNW,3.5,-,N/A,,Overcast,340,2012-01-01 14:53:00
7:53 AM,42.1,36.0,79,30.27,10.0,Calm,Calm,-,N/A,,Overcast,0,2012-01-01 15:53:00
8:53 AM,43.0,35.1,74,30.27,10.0,Calm,Calm,-,N/A,,Scattered Clouds,0,2012-01-01 16:53:00
9:53 AM,44.1,35.1,71,30.27,10.0,NW,3.5,-,N/A,,Mostly Cloudy,320,2012-01-01 17:53:00
10:53 AM,46.0,35.1,66,30.25,10.0,NW,3.5,-,N/A,,Scattered Clouds,310,2012-01-01 18:53:00
11:53 AM,48.9,35.1,59,30.22,10.0,NW,3.5,-,N/A,,Scattered Clouds,320,2012-01-01 19:53:00
12:53 PM,51.1,33.1,50,30.19,10.0,Calm,Calm,-,N/A,,Mostly Cloudy,0,2012-01-01 20:53:00
1:53 PM,53.6,32.0,44,30.16,10.0,NNW,4.6,-,N/A,,Clear,330,2012-01-01 21:53:00
2:53 PM,54.0,28.9,38,30.15,10.0,SE,11.5,17.3,N/A,,Mostly Cloudy,130,2012-01-01 22:53:00
3:53 PM,53.1,28.9,40,30.14,10.0,ESE,6.9,-,N/A,,Clear,120,2012-01-01 23:53:00
4:53 PM,48.0,34.0,58,30.13,10.0,Calm,Calm,-,N/A,,Scattered Clouds,0,2012-01-02 00:53:00
5:53 PM,48.0,30.0,50,30.12,10.0,Calm,Calm,-,N/A,,Scattered Clouds,0,2012-01-02 01:53:00
6:53 PM,44.1,30.9,60,30.12,10.0,Calm,Calm,-,N/A,,Clear,0,2012-01-02 02:53:00
7:53 PM,51.1,27.0,39,30.11,10.0,SE,12.7,-,N/A,,Clear,130,2012-01-02 03:53:00
8:53 PM,46.9,28.9,50,30.09,10.0,Calm,Calm,-,N/A,,Clear,0,2012-01-02 04:53:00
9:53 PM,44.1,28.9,55,30.07,10.0,Calm,Calm,-,N/A,,Clear,0,2012-01-02 05:53:00
10:53 PM,43.0,30.0,60,30.06,10.0,Calm,Calm,-,N/A,,Clear,0,2012-01-02 06:53:00
11:53 PM,42.1,30.0,62,30.06,10.0,Calm,Calm,-,N/A,,Clear,0,2012-01-02 07:53:00